TimeCDT,TemperatureF,Dew PointF,Humidity,Sea Level PressureIn,VisibilityMPH,Wind Direction,Wind SpeedMPH,Gust SpeedMPH,PrecipitationIn,Events,Conditions,WindDirDegrees,DateUTC
12:15 AM,51.8,51.8,100,30.13,10.0,North,5.8,-,N/A,,Clear,360,2012-10-08 05:15:00
12:35 AM,51.4,51.4,100,30.13,10.0,North,4.6,-,N/A,,Clear,10,2012-10-08 05:35:00
12:55 AM,51.4,51.4,100,30.13,10.0,NNE,3.5,-,N/A,,Clear,20,2012-10-08 05:55:00
1:15 AM,51.1,51.1,100,30.12,10.0,NNE,3.5,-,N/A,,Clear,20,2012-10-08 06:15:00
1:35 AM,50.9,50.9,100,30.13,10.0,Calm,Calm,-,N/A,,Clear,0,2012-10-08 06:35:00
1:55 AM,50.4,50.4,100,30.12,10.0,North,3.5,-,N/A,,Clear,10,2012-10-08 06:55:00
2:15 AM,50.2,50.2,100,30.11,10.0,Calm,Calm,-,N/A,,Clear,0,2012-10-08 07:15:00
2:35 AM,49.6,49.6,100,30.11,10.0,North,3.5,-,N/A,,Clear,360,2012-10-08 07:35:00
2:55 AM,49.5,49.5,100,30.11,10.0,North,3.5,-,N/A,,Clear,10,2012-10-08 07:55:00
3:15 AM,49.3,49.3,100,30.10,10.0,North,4.6,-,N/A,,Clear,360,2012-10-08 08:15:00
3:35 AM,49.1,49.1,100,30.10,10.0,North,4.6,-,N/A,,Clear,360,2012-10-08 08:35:00
3:55 AM,49.6,49.6,100,30.10,10.0,Calm,Calm,-,N/A,,Scattered Clouds,0,2012-10-08 08:55:00
4:15 AM,50.0,50.0,100,30.10,10.0,Calm,Calm,-,N/A,,Mostly Cloudy,0,2012-10-08 09:15:00
4:35 AM,50.0,50.0,100,30.11,10.0,North,3.5,-,N/A,,Mostly Cloudy,10,2012-10-08 09:35:00
4:55 AM,49.6,49.6,100,30.11,10.0,North,3.5,-,N/A,,Scattered Clouds,10,2012-10-08 09:55:00
5:15 AM,49.6,49.6,100,30.11,10.0,Calm,Calm,-,N/A,,Scattered Clouds,0,2012-10-08 10:15:00
5:35 AM,49.3,49.3,100,30.12,10.0,Calm,Calm,-,N/A,,Scattered Clouds,0,2012-10-08 10:35:00
6:15 AM,50.2,48.7,95,30.14,10.0,North,8.1,-,N/A,,Overcast,10,2012-10-08 11:15:00
6:35 AM,50.0,49.3,97,30.15,10.0,North,4.6,-,N/A,,Overcast,10,2012-10-08 11:35:00
6:55 AM,49.6,49.6,100,30.16,10.0,North,3.5,-,N/A,,Mostly Cloudy,10,2012-10-08 11:55:00
7:15 AM,49.1,49.1,100,30.17,10.0,North,5.8,-,N/A,,Clear,350,2012-10-08 12:15:00
7:35 AM,49.6,49.6,100,30.18,10.0,North,5.8,-,N/A,,Clear,360,2012-10-08 12:35:00
7:55 AM,50.5,48.6,93,30.18,10.0,North,8.1,-,N/A,,Clear,360,2012-10-08 12:55:00
8:15 AM,51.8,46.4,82,30.18,10.0,North,8.1,-,N/A,,Clear,10,2012-10-08 13:15:00
8:35 AM,53.4,46.6,78,30.18,10.0,NNE,8.1,-,N/A,,Clear,30,2012-10-08 13:35:00
8:55 AM,54.5,45.3,71,30.18,10.0,NNE,8.1,-,N/A,,Clear,30,2012-10-08 13:55:00
9:15 AM,56.3,45.9,68,30.18,10.0,NNE,6.9,-,N/A,,Clear,30,2012-10-08 14:15:00
9:35 AM,57.6,45.5,64,30.18,10.0,NE,3.5,-,N/A,,Clear,40,2012-10-08 14:35:00
9:55 AM,59.2,46.0,62,30.19,10.0,NNE,9.2,-,N/A,,Clear,30,2012-10-08 14:55:00
10:15 AM,59.9,46.2,61,30.19,10.0,NNE,5.8,-,N/A,,Clear,20,2012-10-08 15:15:00
10:35 AM,60.8,46.2,59,30.19,10.0,North,11.5,16.1,N/A,,Clear,10,2012-10-08 15:35:00
10:55 AM,61.9,46.2,56,30.18,10.0,NNE,9.2,-,N/A,,Clear,20,2012-10-08 15:55:00
11:15 AM,63.5,47.1,55,30.18,10.0,North,10.4,-,N/A,,Clear,360,2012-10-08 16:15:00
11:35 AM,64.0,45.3,51,30.18,10.0,NE,11.5,18.4,N/A,,Clear,50,2012-10-08 16:35:00
11:55 AM,64.9,46.6,51,30.17,10.0,NNE,5.8,16.1,N/A,,Clear,30,2012-10-08 16:55:00
12:15 PM,65.7,47.5,52,30.16,10.0,NE,9.2,17.3,N/A,,Clear,40,2012-10-08 17:15:00
12:35 PM,65.7,47.1,51,30.16,10.0,North,11.5,-,N/A,,Mostly Cloudy,360,2012-10-08 17:35:00
12:55 PM,65.3,46.6,51,30.16,10.0,North,11.5,17.3,N/A,,Overcast,10,2012-10-08 17:55:00
1:15 PM,66.0,47.8,52,30.15,10.0,NNE,6.9,-,N/A,,Scattered Clouds,30,2012-10-08 18:15:00
1:35 PM,66.4,48.2,52,30.13,10.0,NNE,9.2,-,N/A,,Clear,20,2012-10-08 18:35:00
1:55 PM,67.6,48.4,50,30.12,10.0,North,10.4,16.1,N/A,,Clear,360,2012-10-08 18:55:00
2:15 PM,68.2,49.3,51,30.11,10.0,North,12.7,-,N/A,,Clear,10,2012-10-08 19:15:00
2:35 PM,68.4,49.1,50,30.10,10.0,North,9.2,-,N/A,,Clear,360,2012-10-08 19:35:00
3:15 PM,69.4,48.6,47,30.10,10.0,NNE,8.1,-,N/A,,Clear,30,2012-10-08 20:15:00
3:35 PM,69.6,48.7,47,30.10,10.0,North,8.1,-,N/A,,Clear,10,2012-10-08 20:35:00
3:55 PM,69.3,48.0,47,30.09,10.0,North,9.2,-,N/A,,Clear,10,2012-10-08 20:55:00
4:15 PM,69.3,48.2,47,30.10,10.0,NNW,8.1,-,N/A,,Clear,340,2012-10-08 21:15:00
4:35 PM,69.1,48.0,47,30.09,10.0,NE,8.1,-,N/A,,Clear,50,2012-10-08 21:35:00
4:55 PM,68.7,48.4,48,30.10,10.0,North,6.9,-,N/A,,Clear,360,2012-10-08 21:55:00
5:15 PM,68.0,48.4,49,30.10,10.0,North,9.2,-,N/A,,Clear,10,2012-10-08 22:15:00
5:35 PM,67.1,48.0,50,30.10,10.0,North,9.2,-,N/A,,Clear,10,2012-10-08 22:35:00
5:55 PM,66.4,48.7,53,30.10,10.0,NNE,6.9,-,N/A,,Clear,20,2012-10-08 22:55:00
6:15 PM,64.4,49.6,59,30.10,10.0,North,5.8,-,N/A,,Clear,360,2012-10-08 23:15:00
6:35 PM,61.9,50.4,66,30.10,10.0,North,4.6,-,N/A,,Clear,10,2012-10-08 23:35:00
6:55 PM,59.7,51.1,73,30.10,10.0,North,3.5,-,N/A,,Clear,360,2012-10-08 23:55:00
7:15 PM,58.6,52.3,80,30.11,10.0,Calm,Calm,-,N/A,,Clear,0,2012-10-09 00:15:00
7:35 PM,56.5,56.5,100,30.12,10.0,Calm,Calm,-,N/A,,Clear,0,2012-10-09 00:35:00
8:15 PM,54.9,54.9,100,30.12,10.0,North,4.6,-,N/A,,Clear,10,2012-10-09 01:15:00
8:35 PM,54.5,54.5,100,30.13,10.0,North,4.6,-,N/A,,Clear,360,2012-10-09 01:35:00
9:15 PM,54.5,54.5,100,30.14,10.0,North,3.5,-,N/A,,Clear,10,2012-10-09 02:15:00
9:35 PM,53.4,53.4,100,30.13,10.0,North,4.6,-,N/A,,Clear,10,2012-10-09 02:35:00
9:55 PM,53.8,53.8,100,30.15,10.0,Calm,Calm,-,N/A,,Clear,0,2012-10-09 02:55:00
10:15 PM,52.9,52.9,100,30.15,10.0,Calm,Calm,-,N/A,,Clear,0,2012-10-09 03:15:00
10:35 PM,53.1,53.1,100,30.15,10.0,Calm,Calm,-,N/A,,Clear,0,2012-10-09 03:35:00
10:55 PM,51.3,51.3,100,30.15,10.0,North,3.5,-,N/A,,Clear,10,2012-10-09 03:55:00
11:15 PM,51.1,51.1,100,30.15,10.0,North,3.5,-,N/A,,Clear,10,2012-10-09 04:15:00
11:35 PM,51.1,51.1,100,30.15,10.0,Calm,Calm,-,N/A,,Clear,0,2012-10-09 04:35:00
11:55 PM,50.4,50.4,100,30.14,10.0,Calm,Calm,-,N/A,,Clear,0,2012-10-09 04:55:00